Location: Gleizolles
(44.4833°N, 6.7667°E)
Time: 01:39:47
(UTC+00:00)

Vanguard 2 Rocket - Pass Details

Date: 18 June 2024
Orbit: 555 x 3302 km, 32.9° (Epoch: 24 July)

Event Time Altitude Azimuth Distance (km) Brightness Sun altitude
Rises 23:08:13 0° 175° (S) 6,760 - -21.8°
Reaches altitude 10° 23:17:26 10° 151° (SSE) 6,136 - -22.0°
Exits shadow 23:21:07 12° 140° (SE) 6,040 10.6 -22.0°
Maximum altitude 23:23:49 12° 131° (SE) 6,032 10.7 -22.0°
Drops below altitude 10° 23:30:13 10° 112° (ESE) 6,223 10.9 -22.1°
Sets 23:39:32 0° 89° (E) 6,970 11.4 -22.1°
